Date String (YYYY-MM-DD hh:mm:ss) UTC,Instrument flags,Ambient pressure (hPa),Sample flow (lpm),Bypass flow (lpm),Sample temperature (°C),Ambient temperature (°C),ASC tube jacket temperature (°C),LED temperature (°C),Box temperature (°C),Sample RH (%),Span deviation,Mass concentration (μg/m³),Mass concentration (μg/m³),Mass concentration (μg/m³)
DateTimeUTC,F1_M11,P_M11,Q1_M11,Q2_M11,T1_M11,T2_M11,T3_M11,T4_M11,T5_M11,U1_M11,ZSPAN_M11,X0_M11,X2_M11,X1_M11
2022-09-29 13:00:00,,0830.8,4.99,0.00,30.8,29.5,00.0,39.6,32.6,14.3,0000.0,0007.73,0003.91,0003.47
2022-09-29 13:01:00,,0830.8,5.01,0.00,30.8,29.4,00.0,39.6,32.6,14.2,0000.0,0007.99,0003.98,0003.48
2022-09-29 13:02:00,,0830.8,4.99,0.00,30.8,29.4,00.0,39.6,32.6,14.2,0000.0,0007.75,0003.97,0003.48
2022-09-29 13:03:00,,0830.7,5.01,0.00,30.9,29.5,00.0,39.6,32.6,14.3,0000.0,0007.77,0004.01,0003.48
2022-09-29 13:04:00,,0830.8,4.99,0.00,30.9,29.5,00.0,39.6,32.7,14.4,0000.0,0007.79,0004.04,0003.49
2022-09-29 13:05:00,,0830.8,5.01,0.00,30.9,29.5,00.0,39.6,32.7,14.3,0000.0,0007.99,0004.10,0003.51
2022-09-29 13:06:00,,0830.8,5.01,0.00,30.9,29.5,00.0,39.6,32.7,14.3,0000.0,0008.20,0004.18,0003.52
2022-09-29 13:07:00,,0830.8,4.99,0.00,30.9,29.5,00.0,39.6,32.7,14.3,0000.0,0008.24,0004.21,0003.52
2022-09-29 13:08:00,,0830.8,5.01,0.00,30.9,29.5,00.0,39.6,32.7,14.5,0000.0,0008.46,0004.25,0003.53
2022-09-29 13:09:00,,0830.8,4.99,0.00,30.9,29.5,00.0,39.6,32.7,14.3,0000.0,0008.77,0004.26,0003.53
2022-09-29 13:10:00,,0830.8,5.01,0.00,30.9,29.5,00.0,39.6,32.7,14.3,0000.0,0008.82,0004.28,0003.53
2022-09-29 13:11:00,,0830.8,4.98,0.00,30.9,29.5,00.0,39.6,32.7,14.3,0000.0,0008.50,0004.25,0003.53
2022-09-29 13:12:00,,0830.7,5.00,0.00,30.9,29.5,00.0,39.7,32.7,14.3,0000.0,0008.41,0004.24,0003.54
2022-09-29 13:13:00,,0830.8,5.01,0.00,30.9,29.6,00.0,39.7,32.7,14.3,0000.0,0009.10,0004.24,0003.53
2022-09-29 13:14:00,,0830.7,4.99,0.00,30.9,29.6,00.0,39.7,32.7,14.4,0000.0,0009.20,0004.24,0003.54
2022-09-29 13:15:00,,0830.8,5.01,0.00,30.9,29.6,00.0,39.7,32.7,14.3,0000.0,0009.12,0004.20,0003.53
2022-09-29 13:16:00,,0830.8,4.99,0.00,30.9,29.6,00.0,39.7,32.8,14.2,0000.0,0009.22,0004.16,0003.53
2022-09-29 13:17:00,,0830.8,5.01,0.00,30.9,29.6,00.0,39.7,32.8,14.2,0000.0,0009.05,0004.11,0003.53
2022-09-29 13:18:00,,0830.7,4.99,0.00,31.0,29.6,00.0,39.7,32.8,14.2,0000.0,0009.01,0004.08,0003.52
2022-09-29 13:19:00,,0830.7,5.01,0.00,31.0,29.6,00.0,39.7,32.8,14.2,0000.0,0008.87,0004.04,0003.51
2022-09-29 13:20:00,,0830.7,4.99,0.00,31.0,29.4,00.0,39.7,32.8,14.2,0000.0,0008.79,0004.04,0003.50
2022-09-29 13:21:00,,0830.7,4.99,0.00,31.0,27.9,00.0,39.7,32.7,14.2,0000.0,0009.00,0004.03,0003.50
2022-09-29 13:22:00,,0830.8,5.01,0.00,30.9,26.7,00.0,39.6,32.5,14.3,0000.0,0009.07,0004.01,0003.49
2022-09-29 13:23:00,,0830.8,5.01,0.00,30.8,26.7,00.0,39.5,32.3,14.4,0000.0,0008.87,0003.97,0003.48
2022-09-29 13:24:00,,0830.8,4.99,0.00,30.7,26.9,00.0,39.5,32.1,14.6,0000.0,0008.21,0003.98,0003.48
2022-09-29 13:25:00,,0830.8,4.99,0.00,30.6,27.3,00.0,39.4,32.1,14.6,0000.0,0008.04,0003.95,0003.47
2022-09-29 13:26:00,,0830.8,4.99,0.00,30.5,27.6,00.0,39.4,32.1,14.8,0000.0,0008.07,0003.96,0003.47
2022-09-29 13:27:00,,0830.8,5.00,0.00,30.4,27.9,00.0,39.3,32.1,14.9,0000.0,0007.76,0003.94,0003.47
2022-09-29 13:28:00,,0830.8,5.00,0.00,30.4,28.1,00.0,39.3,32.1,14.9,0000.0,0007.73,0003.93,0003.46
2022-09-29 13:29:00,,0830.8,4.99,0.00,30.4,28.3,00.0,39.3,32.1,15.0,0000.0,0007.62,0003.91,0003.46
2022-09-29 13:30:00,,0830.8,5.00,0.00,30.4,28.4,00.0,39.3,32.1,15.0,0000.0,0007.58,0003.90,0003.46
2022-09-29 13:31:00,,0830.7,5.01,0.00,30.4,28.6,00.0,39.2,32.1,15.0,0000.0,0007.49,0003.92,0003.48
2022-09-29 13:32:00,,0830.8,4.99,0.00,30.4,28.7,00.0,39.2,32.1,15.1,0000.0,0007.23,0003.92,0003.49
2022-09-29 13:33:00,,0830.7,5.01,0.00,30.4,28.8,00.0,39.2,32.1,15.0,0000.0,0007.21,0003.94,0003.49
2022-09-29 13:34:00,,0830.7,4.99,0.00,30.4,28.9,00.0,39.2,32.1,14.9,0000.0,0007.29,0003.94,0003.50
2022-09-29 13:35:00,,0830.7,5.01,0.00,30.4,28.9,00.0,39.2,32.2,14.9,0000.0,0007.51,0003.89,0003.50
2022-09-29 13:36:00,,0830.7,4.99,0.00,30.4,29.0,00.0,39.2,32.2,14.8,0000.0,0007.80,0003.86,0003.50
2022-09-29 13:37:00,,0830.7,5.01,0.00,30.4,29.0,00.0,39.2,32.2,14.8,0000.0,0007.82,0003.86,0003.51
2022-09-29 13:38:00,,0830.7,4.99,0.00,30.4,29.1,00.0,39.2,32.2,14.7,0000.0,0008.00,0003.87,0003.50
2022-09-29 13:39:00,,0830.8,5.01,0.00,30.4,29.1,00.0,39.2,32.2,14.7,0000.0,0008.28,0003.90,0003.50
2022-09-29 13:40:00,,0830.8,4.99,0.00,30.4,29.1,00.0,39.2,32.3,14.6,0000.0,0008.38,0003.92,0003.50
2022-09-29 13:41:00,,0830.7,5.00,0.00,30.5,29.1,00.0,39.2,32.3,14.7,0000.0,0008.37,0003.91,0003.50
2022-09-29 13:42:00,,0830.7,5.01,0.00,30.5,29.2,00.0,39.2,32.3,14.7,0000.0,0008.29,0003.89,0003.49
2022-09-29 13:43:00,,0830.8,4.99,0.00,30.5,29.2,00.0,39.2,32.3,14.6,0000.0,0008.30,0003.92,0003.51
2022-09-29 13:44:00,,0830.8,5.01,0.00,30.5,29.2,00.0,39.2,32.3,14.5,0000.0,0008.80,0003.91,0003.51
2022-09-29 13:45:00,,0830.8,4.99,0.00,30.5,29.2,00.0,39.2,32.3,14.5,0000.0,0008.80,0003.91,0003.51
2022-09-29 13:46:00,,0830.8,5.01,0.00,30.5,29.2,00.0,39.3,32.4,14.4,0000.0,0008.65,0003.94,0003.50
2022-09-29 13:47:00,,0830.8,5.00,0.00,30.6,29.3,00.0,39.3,32.4,14.4,0000.0,0008.40,0003.99,0003.51
2022-09-29 13:48:00,,0830.8,5.00,0.00,30.6,29.3,00.0,39.3,32.4,14.5,0000.0,0008.40,0004.01,0003.51
2022-09-29 13:49:00,,0830.7,5.01,0.00,30.6,29.3,00.0,39.3,32.4,14.6,0000.0,0008.46,0004.04,0003.52
2022-09-29 13:50:00,,0830.8,4.99,0.00,30.6,29.3,00.0,39.3,32.4,14.7,0000.0,0008.64,0004.04,0003.52
2022-09-29 13:51:00,,0830.8,5.01,0.00,30.6,29.3,00.0,39.3,32.4,14.9,0000.0,0008.88,0004.03,0003.52
2022-09-29 13:52:00,,0830.7,4.98,0.00,30.6,29.4,00.0,39.3,32.4,14.9,0000.0,0008.87,0004.05,0003.53
2022-09-29 13:53:00,,0830.8,5.01,0.00,30.7,29.4,00.0,39.4,32.5,14.9,0000.0,0008.83,0004.04,0003.54
2022-09-29 13:54:00,,0830.8,5.00,0.00,30.7,29.4,00.0,39.4,32.5,14.9,0000.0,0009.17,0004.04,0003.53
2022-09-29 13:55:00,,0830.7,5.00,0.00,30.7,29.4,00.0,39.4,32.5,15.6,0000.0,0008.80,0004.03,0003.53
2022-09-29 13:56:00,,0830.7,5.01,0.00,30.7,29.4,00.0,39.4,32.5,15.5,0000.0,0008.54,0004.02,0003.51
2022-09-29 13:57:00,,0830.7,4.99,0.00,30.7,29.5,00.0,39.4,32.5,15.3,0000.0,0008.66,0004.02,0003.50
2022-09-29 13:58:00,,0830.8,5.00,0.00,30.7,29.5,00.0,39.4,32.6,14.9,0000.0,0009.59,0004.00,0003.48
2022-09-29 13:59:00,,0830.8,5.01,0.00,30.7,29.5,00.0,39.4,32.6,14.7,0000.0,0009.71,0003.98,0003.46
